CW5039 Weather Reports


time (UTC)temp
F
wind
direction
speed
knots
gust
knots
rain 1hr
in
rain 24hr
in
rain mn
in
humidity
%
barometer
mb
20260503203905 49 198 0.0 0.9 0.00 0.00 0.00 95 1035.2
20260503203405 49 198 0.0 1.7 0.00 0.00 0.00 95 1035.1
20260503202905 49 199 0.0 0.9 0.00 0.00 0.00 95 1035.0
20260503200405 47 200 0.9 2.6 0.00 0.00 0.00 95 1034.9
20260503195904 47 200 3.5 4.3 0.00 0.00 0.00 95 1034.9
20260503195405 47 217 0.9 2.6 0.00 0.00 0.00 95 1034.9
20260503192905 45 240 0.0 0.9 0.00 0.00 0.00 95 1034.7
20260503185406 43 238 0.0 0.0 0.00 0.00 0.00 95 1034.4
20260503183406 44 238 0.0 0.0 0.00 0.00 0.00 95 1034.3
20260503182906 44 238 0.0 0.0 0.00 0.00 0.00 95 1034.2
20260503182406 45 238 0.0 0.9 0.00 0.00 0.00 95 1034.1
20260503180906 45 228 0.9 0.9 0.00 0.00 0.00 95 1033.9
20260503180406 46 227 0.0 0.9 0.00 0.00 0.00 95 1033.9
20260503175905 46 226 0.0 0.9 0.00 0.01 0.00 95 1033.9
20260503175405 46 226 0.0 0.9 0.00 0.01 0.00 95 1033.9
20260503174905 46 222 0.0 0.9 0.00 0.01 0.00 95 1033.8
20260503173906 46 219 0.0 1.7 0.00 0.01 0.00 95 1033.7
20260503173406 45 219 0.0 0.9 0.00 0.01 0.00 95 1033.8
20260503172405 45 111 0.0 0.0 0.00 0.01 0.00 95 1033.8
20260503171407 45 103 0.0 0.0 0.00 0.01 0.00 95 1033.9
20260503170906 45 103 0.0 0.9 0.00 0.01 0.00 95 1034.0
20260503150906 45 90 0.0 1.7 0.00 0.01 0.00 95 1034.5
20260503150406 45 84 0.0 0.9 0.00 0.01 0.00 95 1034.6
20260503131405 39 270 0.0 0.0 0.00 0.01 0.00 94 1035.0
20260503130405 40 270 0.0 0.0 0.00 0.01 0.00 93 1035.1
20260503110406 42 271 0.0 0.0 0.00 0.01 0.01 93 1034.6
20260503081405 47 251 0.0 0.0 0.00 0.01 0.01 90 1033.2
20260503072904 50 251 0.0 0.0 0.00 0.01 0.01 89 1033.0
20260503072404 50 251 0.0 0.0 0.00 0.01 0.01 88 1033.0
20260503071404 49 251 0.0 0.0 0.00 0.01 0.01 87 1033.0
20260503070905 50 251 0.0 0.0 0.00 0.01 0.01 86 1033.0
20260503053905 58 20 0.0 0.0 0.00 0.01 0.01 76 1032.5
20260503052906 59 20 0.9 1.7 0.00 0.01 0.01 73 1032.5
20260503051905 61 21 0.9 0.9 0.00 0.01 0.01 71 1032.5
20260503051405 62 21 0.9 1.7 0.00 0.01 0.01 68 1032.5
20260503045406 65 25 0.0 0.0 0.00 0.01 0.01 63 1032.3
20260503043904 64 25 0.0 0.9 0.00 0.01 0.01 66 1032.4
20260503043406 64 25 0.0 0.9 0.00 0.01 0.01 67 1032.5
20260503042905 64 31 0.0 1.7 0.00 0.01 0.01 67 1032.5
20260503042406 64 31 1.7 1.7 0.00 0.01 0.01 66 1032.5
20260503041906 64 30 0.9 1.7 0.00 0.01 0.01 64 1032.5
20260503040905 65 26 0.9 2.6 0.00 0.01 0.01 63 1032.5
20260503035905 65 25 0.0 0.9 0.00 0.01 0.01 62 1032.5
20260503035405 65 25 0.9 1.7 0.00 0.01 0.01 62 1032.5
20260503034905 65 23 0.0 1.7 0.00 0.01 0.01 64 1032.5
20260503034405 64 49 1.7 2.6 0.00 0.01 0.01 66 1032.5
20260503031905 68 207 0.0 1.7 0.00 0.01 0.01 60 1032.5
20260503024904 67 128 0.0 0.9 0.00 0.01 0.01 61 1032.7
20260503023905 65 123 0.0 2.6 0.00 0.01 0.01 63 1032.8
20260503023405 64 66 1.7 2.6 0.00 0.01 0.01 65 1032.9
20260503022905 65 95 1.7 4.3 0.00 0.01 0.01 62 1032.9
20260503020905 65 214 1.7 2.6 0.00 0.01 0.01 62 1033.0
20260503020405 66 195 1.7 2.6 0.00 0.01 0.01 63 1033.0
20260503015905 66 87 0.0 1.7 0.00 0.01 0.01 63 1033.0
20260503015405 64 254 0.0 0.9 0.00 0.01 0.01 65 1033.0
20260503013905 64 92 0.9 2.6 0.00 0.01 0.01 67 1033.2
20260503012904 64 154 3.5 5.2 0.00 0.01 0.01 67 1033.4
20260503011904 63 177 3.5 6.1 0.00 0.01 0.01 66 1033.4
20260503005905 64 296 0.0 1.7 0.00 0.01 0.01 65 1033.8
20260503005405 64 295 2.6 4.3 0.00 0.01 0.01 65 1033.8
20260503004405 64 295 0.9 1.7 0.00 0.01 0.01 65 1034.0
20260503003906 64 295 0.0 1.7 0.00 0.01 0.01 68 1034.1
20260503002405 63 254 0.9 2.6 0.00 0.01 0.01 74 1034.3
20260503001405 62 222 0.9 1.7 0.00 0.01 0.01 74 1034.5
20260503000904 62 223 0.9 2.6 0.00 0.01 0.01 76 1034.5
20260503000407 62 225 0.9 2.6 0.00 0.01 0.01 76 1034.6
20260502233405 61 218 0.9 2.6 0.00 0.01 0.01 78 1035.1
20260502231904 59 211 0.0 0.0 0.00 0.01 0.01 81 1035.1
20260502231405 58 211 0.0 2.6 0.00 0.01 0.01 82 1035.1
20260502230905 58 203 0.9 2.6 0.00 0.01 0.01 83 1035.2
20260502225905 58 197 0.9 2.6 0.00 0.01 0.01 84 1035.3
20260502224905 57 199 0.9 1.7 0.00 0.01 0.01 85 1035.3
20260502224405 57 200 0.9 2.6 0.00 0.01 0.01 87 1035.3
20260502223904 56 203 0.0 1.7 0.00 0.01 0.01 88 1035.3
20260502223405 56 202 1.7 2.6 0.00 0.01 0.01 89 1035.3
20260502222904 55 202 0.9 1.7 0.00 0.01 0.01 90 1035.3
20260502222405 55 201 0.9 1.7 0.00 0.01 0.01 90 1035.3
20260502215905 53 209 1.7 2.6 0.00 0.01 0.01 93 1035.3
20260502215406 53 210 0.9 2.6 0.00 0.01 0.01 94 1035.3
20260502214405 52 206 1.7 2.6 0.00 0.01 0.01 95 1035.3
20260502213904 51 206 0.9 2.6 0.00 0.01 0.01 95 1035.4
20260502212405 50 205 0.9 2.6 0.00 0.01 0.01 95 1035.4